This is the latest recevied weather packets stored in our database for station/object VK6WB. If no packets are shown the sender has not sent any weather packets the latest 1 day(s).
| Time | Temp. | Humidity | Pressure | Rain* | Wind** | Luminosity | Snow |
|---|---|---|---|---|---|---|---|
| 1778092805 | 13.89° C | 57% | 1025.4 hPa | 0 mm | - | 323 W/m² | - |
| 1778091005 | 13.89° C | 59% | 1025.4 hPa | 0 mm | - | 685 W/m² | - |
| 1778089205 | 13.89° C | 58% | 1025.3 hPa | 0 mm | - | 737 W/m² | - |
| 1778087406 | 14.44° C | 58% | 1025.2 hPa | 0 mm | - | 789 W/m² | - |
| 1778082605 | 15.56° C | 53% | 1025.4 hPa | 0 mm | - | 841 W/m² | - |
| 1778080805 | 15.56° C | 53% | 1025.3 hPa | 0 mm | - | 841 W/m² | - |
| 1778079005 | 16.11° C | 52% | 1025.6 hPa | 0 mm | - | 893 W/m² | - |
| 1778076005 | 16.11° C | 53% | 1025.6 hPa | 0 mm | - | 893 W/m² | - |
| 1778074205 | 16.67° C | 53% | 1025.5 hPa | 0 mm | - | 738 W/m² | - |
| 1778072405 | 17.22° C | 52% | 1025.3 hPa | 0 mm | - | 531 W/m² | - |
| 1778071205 | 17.22° C | 52% | 1025.1 hPa | 0 mm | - | 427 W/m² | - |
| 1778070605 | 17.78° C | 52% | 1025.1 hPa | 0 mm | - | 324 W/m² | - |
| 1778067605 | 17.22° C | 54% | 1024.7 hPa | 0 mm | - | 220 W/m² | - |
| 1778065805 | 18.33° C | 53% | 1024.7 hPa | 0 mm | - | 272 W/m² | - |
| 1778064005 | 18.33° C | 52% | 1024.4 hPa | 0 mm | - | 220 W/m² | - |
| 1778062805 | 18.89° C | 52% | 1024.1 hPa | 0 mm | - | 117 W/m² | - |
| 1778060405 | 20.56° C | 44% | 1023.6 hPa | 0 mm | - | 13 W/m² | - |
| 1778059205 | 21.11° C | 43% | 1023.4 hPa | 0 mm | - | 65 W/m² | - |
| 1778058005 | 28.33° C | 39% | 1023.4 hPa | 0 mm | - | 65 W/m² | - |
| 1778057405 | 22.22° C | 39% | 1023.4 hPa | 0 mm | - | 65 W/m² | - |
| 1778056205 | 22.22° C | 39% | 1023.3 hPa | 0 mm | - | 65 W/m² | - |
| 1778055605 | 24.44° C | 39% | 1023.4 hPa | 0 mm | - | 65 W/m² | - |
| 1778054405 | 22.78° C | 38% | 1023.4 hPa | 0 mm | - | 65 W/m² | - |
| 1778053205 | 22.78° C | 38% | 1023.2 hPa | 0 mm | - | 65 W/m² | - |
| 1778051405 | 22.78° C | 38% | 1023.3 hPa | 0 mm | - | 65 W/m² | - |
* Rain latest hour (hover to see other rain measurements)
** Current wind speed in m/s (hover to see current wind gust speed)